| time (UTC) | temp F | wind direction | speed knots | gust knots | rain 1hr in | rain 24hr in | rain mn in | humidity % | barometer mb |
| 20260509233145 | 46 | 55 | 1.7 | 2.6 | 0.00 | 0.00 | 0.48 | 99 | 1012.3 |
| 20260509232646 | 46 | 6 | 1.7 | 1.7 | 0.00 | 0.00 | 0.48 | 99 | 1012.3 |
| 20260509232141 | 46 | 32 | 1.7 | 2.6 | 0.00 | 0.00 | 0.48 | 99 | 1012.3 |
| 20260509231640 | 46 | 34 | 1.7 | 2.6 | 0.00 | 0.00 | 0.48 | 99 | 1011.9 |
| 20260509230640 | 46 | 26 | 0.9 | 1.7 | 0.00 | 0.00 | 0.48 | 99 | 1012.3 |
| 20260509230241 | 46 | 341 | 1.7 | 2.6 | 0.00 | 0.00 | 0.48 | 99 | 1012.3 |
| 20260509225638 | 46 | 235 | 2.6 | 4.3 | 0.00 | 0.00 | 0.48 | 99 | 1012.3 |
| 20260509224657 | 46 | 89 | 2.6 | 5.2 | 0.00 | 0.00 | 0.48 | 99 | 1012.3 |
| 20260509223136 | 46 | 23 | 1.7 | 1.7 | 0.00 | 0.00 | 0.48 | 99 | 1012.3 |
| 20260509222638 | 46 | 319 | 0.9 | 1.7 | 0.00 | 0.00 | 0.48 | 99 | 1012.3 |
| 20260509222137 | 46 | 14 | 1.7 | 2.6 | 0.00 | 0.00 | 0.48 | 99 | 1012.3 |
| 20260509221135 | 46 | 342 | 0.9 | 1.7 | 0.00 | 0.00 | 0.48 | 99 | 1012.3 |
| 20260509220636 | 46 | 308 | 1.7 | 2.6 | 0.00 | 0.00 | 0.48 | 99 | 1012.3 |
| 20260509220135 | 46 | 99 | 3.5 | 6.1 | 0.00 | 0.00 | 0.48 | 99 | 1012.3 |
| 20260509215737 | 46 | 344 | 0.9 | 1.7 | 0.00 | 0.00 | 0.48 | 99 | 1012.3 |
| 20260509215134 | 46 | 134 | 3.5 | 6.1 | 0.00 | 0.00 | 0.48 | 99 | 1012.3 |
| 20260509214633 | 46 | 79 | 2.6 | 4.3 | 0.00 | 0.00 | 0.48 | 99 | 1012.4 |
| 20260509214134 | 46 | 140 | 3.5 | 5.2 | 0.00 | 0.00 | 0.48 | 99 | 1012.6 |
| 20260509213635 | 46 | 138 | 3.5 | 5.2 | 0.00 | 0.00 | 0.48 | 99 | 1012.6 |
| 20260509213133 | 45 | 88 | 2.6 | 4.3 | 0.00 | 0.00 | 0.48 | 99 | 1012.6 |
| 20260509212632 | 45 | 323 | 1.7 | 2.6 | 0.00 | 0.00 | 0.48 | 99 | 1012.6 |
| 20260509212134 | 45 | 304 | 1.7 | 2.6 | 0.00 | 0.00 | 0.48 | 99 | 1012.6 |
| 20260509211632 | 45 | 66 | 1.7 | 2.6 | 0.00 | 0.00 | 0.48 | 99 | 1012.8 |
| 20260509211131 | 45 | 257 | 1.7 | 1.7 | 0.00 | 0.00 | 0.48 | 99 | 1012.6 |
| 20260509210632 | 45 | 31 | 1.7 | 2.6 | 0.00 | 0.00 | 0.48 | 99 | 1012.6 |
| 20260509210132 | 45 | 63 | 2.6 | 2.6 | 0.00 | 0.00 | 0.48 | 99 | 1013.0 |
| 20260509205631 | 45 | 158 | 3.5 | 5.2 | 0.00 | 0.00 | 0.48 | 99 | 1013.0 |
| 20260509205130 | 45 | 113 | 2.6 | 4.3 | 0.00 | 0.00 | 0.48 | 99 | 1013.0 |
| 20260509204629 | 45 | 354 | 1.7 | 1.7 | 0.00 | 0.00 | 0.48 | 99 | 1013.0 |
| 20260509204130 | 45 | 55 | 1.7 | 2.6 | 0.00 | 0.00 | 0.48 | 99 | 1013.0 |
| 20260509203630 | 45 | 50 | 2.6 | 4.3 | 0.00 | 0.00 | 0.48 | 99 | 1013.3 |
| 20260509203129 | 45 | 169 | 3.5 | 4.3 | 0.00 | 0.00 | 0.47 | 99 | 1013.1 |
| 20260509202628 | 45 | 134 | 3.5 | 5.2 | 0.00 | 0.00 | 0.47 | 99 | 1013.3 |
| 20260509202132 | 45 | 166 | 5.2 | 6.1 | 0.00 | 0.00 | 0.46 | 99 | 1013.0 |
| 20260509201629 | 45 | 91 | 2.6 | 2.6 | 0.00 | 0.00 | 0.46 | 99 | 1013.0 |
| 20260509201128 | 45 | 169 | 4.3 | 6.1 | 0.00 | 0.00 | 0.46 | 99 | 1013.0 |
| 20260509200627 | 44 | 150 | 4.3 | 6.1 | 0.00 | 0.00 | 0.46 | 99 | 1013.0 |
| 20260509200126 | 45 | 22 | 1.7 | 2.6 | 0.00 | 0.00 | 0.45 | 99 | 1013.0 |
| 20260509195727 | 44 | 195 | 3.5 | 6.1 | 0.00 | 0.00 | 0.45 | 99 | 1013.0 |
| 20260509195127 | 44 | 112 | 2.6 | 4.3 | 0.00 | 0.00 | 0.45 | 99 | 1013.0 |
| 20260509194125 | 44 | 178 | 3.5 | 5.2 | 0.00 | 0.00 | 0.44 | 99 | 1013.1 |
| 20260509193626 | 44 | 32 | 2.6 | 2.6 | 0.00 | 0.00 | 0.43 | 99 | 1013.3 |
| 20260509193125 | 44 | 146 | 2.6 | 4.3 | 0.00 | 0.00 | 0.43 | 99 | 1013.3 |
| 20260509192624 | 44 | 152 | 3.5 | 4.3 | 0.00 | 0.00 | 0.42 | 99 | 1013.3 |
| 20260509192225 | 44 | 51 | 1.7 | 2.6 | 0.00 | 0.00 | 0.42 | 99 | 1013.3 |
| 20260509191624 | 44 | 147 | 3.5 | 5.2 | 0.00 | 0.00 | 0.41 | 99 | 1013.3 |
| 20260509191123 | 44 | 52 | 1.7 | 2.6 | 0.00 | 0.00 | 0.40 | 99 | 1013.7 |
| 20260509190622 | 44 | 131 | 4.3 | 6.1 | 0.00 | 0.00 | 0.39 | 99 | 1013.7 |
| 20260509190123 | 44 | 177 | 4.3 | 6.1 | 0.00 | 0.00 | 0.38 | 99 | 1013.7 |
| 20260509185622 | 44 | 131 | 4.3 | 7.0 | 0.00 | 0.00 | 0.38 | 99 | 1013.7 |
| 20260509184724 | 44 | 151 | 4.3 | 5.2 | 0.00 | 0.00 | 0.36 | 99 | 1013.7 |
| 20260509184122 | 44 | 120 | 3.5 | 4.3 | 0.00 | 0.00 | 0.35 | 99 | 1013.7 |
| 20260509183621 | 44 | 134 | 3.5 | 6.1 | 0.00 | 0.00 | 0.34 | 99 | 1013.7 |
| 20260509182622 | 44 | 209 | 2.6 | 4.3 | 0.00 | 0.00 | 0.33 | 99 | 1014.0 |
| 20260509182121 | 43 | 301 | 1.7 | 2.6 | 0.00 | 0.00 | 0.32 | 99 | 1014.0 |
| 20260509181620 | 43 | 125 | 4.3 | 6.1 | 0.00 | 0.00 | 0.32 | 99 | 1014.0 |
| 20260509181121 | 44 | 151 | 5.2 | 6.1 | 0.00 | 0.00 | 0.31 | 99 | 1014.0 |
| 20260509180618 | 44 | 143 | 3.5 | 5.2 | 0.00 | 0.00 | 0.31 | 99 | 1014.0 |
| 20260509180119 | 44 | 136 | 2.6 | 4.3 | 0.00 | 0.00 | 0.30 | 99 | 1014.0 |
| 20260509175619 | 43 | 152 | 4.3 | 6.1 | 0.00 | 0.00 | 0.29 | 99 | 1014.0 |
| 20260509175118 | 43 | 142 | 3.5 | 5.2 | 0.00 | 0.00 | 0.29 | 99 | 1014.2 |
| 20260509174622 | 43 | 155 | 4.3 | 7.0 | 0.00 | 0.00 | 0.28 | 99 | 1014.0 |
| 20260509174219 | 43 | 124 | 4.3 | 6.1 | 0.00 | 0.00 | 0.28 | 99 | 1014.0 |
| 20260509173618 | 43 | 189 | 4.3 | 6.1 | 0.00 | 0.00 | 0.27 | 99 | 1014.2 |
| 20260509173117 | 43 | 164 | 3.5 | 5.2 | 0.00 | 0.00 | 0.26 | 99 | 1014.2 |
| 20260509172118 | 43 | 298 | 2.6 | 2.6 | 0.00 | 0.00 | 0.25 | 99 | 1014.0 |
| 20260509171617 | 43 | 147 | 3.5 | 5.2 | 0.00 | 0.00 | 0.24 | 99 | 1014.4 |
| 20260509171116 | 43 | 102 | 2.6 | 4.3 | 0.00 | 0.00 | 0.23 | 99 | 1014.4 |
| 20260509170645 | 43 | 140 | 3.5 | 5.2 | 0.00 | 0.00 | 0.22 | 99 | 1014.4 |
| 20260509170147 | 43 | 129 | 2.6 | 4.3 | 0.00 | 0.00 | 0.21 | 99 | 1014.4 |
| 20260509165645 | 43 | 154 | 4.3 | 6.1 | 0.00 | 0.00 | 0.20 | 99 | 1014.4 |
| 20260509165144 | 43 | 33 | 1.7 | 2.6 | 0.00 | 0.00 | 0.19 | 99 | 1014.4 |
| 20260509164643 | 43 | 92 | 2.6 | 2.6 | 0.00 | 0.00 | 0.19 | 99 | 1014.5 |
| 20260509164145 | 43 | 12 | 1.7 | 2.6 | 0.00 | 0.00 | 0.18 | 99 | 1014.7 |
| 20260509163644 | 42 | 316 | 1.7 | 1.7 | 0.00 | 0.00 | 0.17 | 99 | 1014.7 |
| 20260509163143 | 42 | 352 | 0.9 | 1.7 | 0.00 | 0.00 | 0.17 | 99 | 1014.7 |
| 20260509162642 | 42 | 122 | 3.5 | 6.1 | 0.00 | 0.00 | 0.16 | 99 | 1014.7 |
| 20260509162141 | 42 | 106 | 2.6 | 4.3 | 0.00 | 0.00 | 0.16 | 99 | 1014.7 |
| 20260509161643 | 43 | 354 | 0.9 | 1.7 | 0.00 | 0.00 | 0.16 | 99 | 1015.1 |
| 20260509161142 | 42 | 52 | 1.7 | 2.6 | 0.00 | 0.00 | 0.15 | 99 | 1015.1 |
| 20260509160641 | 42 | 288 | 2.6 | 2.6 | 0.00 | 0.00 | 0.15 | 99 | 1015.1 |
| 20260509160140 | 42 | 2 | 1.7 | 1.7 | 0.00 | 0.00 | 0.14 | 99 | 1015.1 |
| 20260509155641 | 42 | 338 | 0.9 | 0.9 | 0.00 | 0.00 | 0.14 | 99 | 1015.1 |
| 20260509155140 | 42 | 286 | 1.7 | 2.6 | 0.00 | 0.00 | 0.13 | 99 | 1015.1 |
| 20260509154640 | 42 | 305 | 1.7 | 2.6 | 0.00 | 0.00 | 0.13 | 99 | 1015.1 |
| 20260509154141 | 42 | 153 | 3.5 | 5.2 | 0.00 | 0.00 | 0.12 | 99 | 1015.4 |
| 20260509153640 | 42 | 322 | 1.7 | 2.6 | 0.00 | 0.00 | 0.12 | 99 | 1015.2 |
| 20260509153139 | 41 | 324 | 1.7 | 1.7 | 0.00 | 0.00 | 0.11 | 99 | 1015.4 |
| 20260509152740 | 41 | 111 | 2.6 | 4.3 | 0.00 | 0.00 | 0.11 | 99 | 1015.4 |
| 20260509152139 | 41 | 51 | 2.6 | 4.3 | 0.00 | 0.00 | 0.10 | 99 | 1015.4 |
| 20260509151638 | 41 | 39 | 2.6 | 2.6 | 0.00 | 0.00 | 0.10 | 99 | 1015.4 |
| 20260509151137 | 41 | 339 | 1.7 | 1.7 | 0.00 | 0.00 | 0.09 | 99 | 1015.8 |
| 20260509150636 | 41 | 14 | 1.7 | 1.7 | 0.00 | 0.00 | 0.09 | 99 | 1015.4 |
| 20260509145639 | 41 | 295 | 1.7 | 2.6 | 0.00 | 0.00 | 0.07 | 99 | 1015.4 |
| 20260509144637 | 41 | 25 | 2.6 | 4.3 | 0.00 | 0.00 | 0.06 | 99 | 1015.4 |
| 20260509144139 | 41 | 40 | 2.6 | 4.3 | 0.00 | 0.00 | 0.05 | 99 | 1015.4 |
| 20260509143636 | 41 | 5 | 1.7 | 1.7 | 0.00 | 0.00 | 0.05 | 99 | 1015.4 |
| 20260509143135 | 41 | 34 | 0.9 | 1.7 | 0.00 | 0.00 | 0.04 | 99 | 1015.1 |
| 20260509142135 | 41 | 21 | 1.7 | 1.7 | 0.00 | 0.00 | 0.04 | 99 | 1015.1 |
| 20260509141635 | 41 | 20 | 1.7 | 2.6 | 0.00 | 0.00 | 0.03 | 99 | 1015.2 |
| 20260509141135 | 41 | 336 | 0.9 | 0.9 | 0.00 | 0.00 | 0.03 | 99 | 1015.4 |
| 20260509140636 | 41 | 343 | 0.0 | 0.9 | 0.00 | 0.00 | 0.03 | 99 | 1015.1 |
| 20260509140134 | 41 | 21 | 1.7 | 1.7 | 0.00 | 0.00 | 0.03 | 99 | 1015.2 |
| 20260509135634 | 41 | 243 | 0.9 | 1.7 | 0.00 | 0.00 | 0.02 | 98 | 1015.1 |
| 20260509135135 | 41 | 133 | 2.6 | 4.3 | 0.00 | 0.00 | 0.02 | 97 | 1015.1 |
| 20260509134635 | 42 | 227 | 2.6 | 4.3 | 0.00 | 0.00 | 0.01 | 96 | 1015.1 |
| 20260509134131 | 41 | 348 | 0.9 | 1.7 | 0.00 | 0.00 | 0.01 | 95 | 1015.1 |
| 20260509133632 | 41 | 215 | 2.6 | 5.2 | 0.00 | 0.00 | 0.01 | 94 | 1015.1 |
| 20260509133134 | 42 | 342 | 1.7 | 2.6 | 0.00 | 0.00 | 0.00 | 94 | 1015.1 |
| 20260509132630 | 42 | 4 | 0.9 | 2.6 | 0.00 | 0.00 | 0.00 | 93 | 1015.1 |
| 20260509132130 | 42 | 343 | 0.9 | 1.7 | 0.00 | 0.00 | 0.00 | 93 | 1015.1 |
| 20260509131130 | 42 | 349 | 0.9 | 0.9 | 0.00 | 0.00 | 0.00 | 91 | 1015.1 |
| 20260509130128 | 41 | 18 | 1.7 | 1.7 | 0.00 | 0.00 | 0.00 | 89 | 1015.1 |
| 20260509125630 | 42 | 24 | 2.6 | 2.6 | 0.00 | 0.00 | 0.00 | 87 | 1015.1 |
| 20260509125129 | 42 | 193 | 2.6 | 4.3 | 0.00 | 0.00 | 0.00 | 86 | 1015.1 |
| 20260509124628 | 42 | 100 | 2.6 | 2.6 | 0.00 | 0.00 | 0.00 | 84 | 1015.1 |
| 20260509124127 | 42 | 131 | 3.5 | 4.3 | 0.00 | 0.00 | 0.00 | 83 | 1015.1 |
| 20260509123630 | 42 | 199 | 2.6 | 4.3 | 0.00 | 0.00 | 0.00 | 82 | 1015.1 |
| 20260509122229 | 42 | 41 | 2.6 | 2.6 | 0.00 | 0.00 | 0.00 | 82 | 1015.1 |
| 20260509121727 | 41 | 63 | 2.6 | 4.3 | 0.00 | 0.00 | 0.00 | 82 | 1015.4 |
| 20260509121126 | 41 | 169 | 3.5 | 5.2 | 0.00 | 0.00 | 0.00 | 82 | 1015.1 |
| 20260509120726 | 41 | 110 | 2.6 | 5.2 | 0.00 | 0.00 | 0.00 | 82 | 1015.4 |
| 20260509120126 | 41 | 22 | 2.6 | 2.6 | 0.00 | 0.00 | 0.00 | 82 | 1015.4 |
| 20260509115625 | 41 | 66 | 2.6 | 2.6 | 0.00 | 0.00 | 0.00 | 83 | 1015.4 |
| 20260509115124 | 41 | 357 | 1.7 | 1.7 | 0.00 | 0.00 | 0.00 | 82 | 1015.4 |
| 20260509114624 | 41 | 318 | 1.7 | 1.7 | 0.00 | 0.00 | 0.00 | 83 | 1015.4 |
| 20260509114125 | 41 | 17 | 1.7 | 1.7 | 0.00 | 0.00 | 0.00 | 83 | 1015.2 |
| 20260509113627 | 41 | 55 | 2.6 | 4.3 | 0.00 | 0.00 | 0.00 | 83 | 1015.1 |
| 20260509113228 | 41 | 28 | 2.6 | 2.6 | 0.00 | 0.00 | 0.00 | 82 | 1015.4 |
| 20260509112622 | 40 | 33 | 1.7 | 2.6 | 0.00 | 0.00 | 0.00 | 83 | 1015.2 |
| 20260509112222 | 40 | 360 | 1.7 | 1.7 | 0.00 | 0.00 | 0.00 | 85 | 1015.4 |
| 20260509111623 | 40 | 339 | 0.0 | 0.9 | 0.00 | 0.00 | 0.00 | 85 | 1015.4 |
| 20260509111122 | 40 | 0.0 | 0.0 | 0.00 | 0.00 | 0.00 | 84 | 1015.4 | |
| 20260509110621 | 40 | 354 | 0.9 | 0.9 | 0.00 | 0.00 | 0.00 | 85 | 1015.4 |
| 20260509110120 | 39 | 354 | 0.9 | 1.7 | 0.00 | 0.00 | 0.00 | 85 | 1015.4 |
| 20260509105621 | 39 | 354 | 0.9 | 1.7 | 0.00 | 0.00 | 0.00 | 85 | 1015.4 |
| 20260509104620 | 0 | 0.0 | 0.0 | 0.00 | 0.00 | 0.00 | 1015.1 | ||
| 20260509104122 | 39 | 17 | 1.7 | 1.7 | 0.00 | 0.00 | 0.00 | 86 | 1015.4 |
| 20260509102618 | 39 | 65 | 2.6 | 2.6 | 0.00 | 0.00 | 0.00 | 86 | 1015.1 |
| 20260509101617 | 39 | 19 | 1.7 | 1.7 | 0.00 | 0.00 | 0.00 | 86 | 1015.1 |
| 20260509101119 | 39 | 340 | 0.9 | 1.7 | 0.00 | 0.00 | 0.00 | 85 | 1015.1 |
| 20260509100617 | 39 | 351 | 0.9 | 0.9 | 0.00 | 0.00 | 0.00 | 84 | 1015.1 |
| 20260509100117 | 39 | 0.0 | 0.0 | 0.00 | 0.00 | 0.00 | 84 | 1015.1 | |
| 20260509095616 | 40 | 353 | 0.9 | 1.7 | 0.00 | 0.00 | 0.00 | 83 | 1015.1 |
| 20260509095117 | 40 | 346 | 0.9 | 1.7 | 0.00 | 0.00 | 0.00 | 83 | 1015.2 |
| 20260509094617 | 39 | 273 | 1.7 | 2.6 | 0.00 | 0.00 | 0.00 | 83 | 1015.1 |
| 20260509094117 | 39 | 309 | 0.9 | 2.6 | 0.00 | 0.00 | 0.00 | 84 | 1015.1 |
| 20260509093647 | 39 | 74 | 2.6 | 2.6 | 0.00 | 0.00 | 0.00 | 85 | 1015.1 |
| 20260509093146 | 38 | 0 | 1.7 | 1.7 | 0.00 | 0.00 | 0.00 | 87 | 1015.1 |
| 20260509092645 | 37 | 350 | 0.9 | 0.9 | 0.00 | 0.00 | 0.00 | 88 | 1015.1 |
| 20260509092144 | 36 | 0.0 | 0.0 | 0.00 | 0.00 | 0.00 | 91 | 1015.1 | |
| 20260509091643 | 35 | 334 | 0.9 | 0.9 | 0.00 | 0.00 | 0.00 | 93 | 1015.1 |
| 20260509091145 | 35 | 0.0 | 0.0 | 0.00 | 0.00 | 0.00 | 93 | 1015.1 | |
| 20260509090647 | 35 | 0.0 | 0.0 | 0.00 | 0.00 | 0.00 | 93 | 1015.1 | |
| 20260509090143 | 35 | 326 | 0.9 | 0.9 | 0.00 | 0.00 | 0.00 | 92 | 1014.9 |
| 20260509085645 | 35 | 326 | 0.9 | 0.9 | 0.00 | 0.00 | 0.00 | 92 | 1015.1 |
| 20260509085143 | 36 | 356 | 0.9 | 1.7 | 0.00 | 0.00 | 0.00 | 91 | 1014.7 |
| 20260509084646 | 35 | 0.0 | 0.0 | 0.00 | 0.00 | 0.00 | 93 | 1014.7 | |
| 20260509084242 | 34 | 340 | 0.9 | 0.9 | 0.00 | 0.00 | 0.00 | 93 | 1014.9 |
| 20260509083644 | 34 | 336 | 0.0 | 0.9 | 0.00 | 0.00 | 0.00 | 94 | 1014.7 |
| 20260509083140 | 34 | 331 | 0.0 | 0.9 | 0.00 | 0.00 | 0.00 | 93 | 1014.4 |
| 20260509082643 | 0 | 0.0 | 0.0 | 0.00 | 0.00 | 0.00 | 1014.4 | ||
| 20260509082140 | 0 | 0.0 | 0.0 | 0.00 | 0.00 | 0.00 | 1014.4 | ||
| 20260509081639 | 34 | 326 | 0.9 | 0.9 | 0.00 | 0.00 | 0.00 | 92 | 1014.4 |
| 20260509081140 | 34 | 326 | 0.9 | 0.9 | 0.00 | 0.00 | 0.00 | 92 | 1014.4 |
| 20260509080639 | 34 | 342 | 1.7 | 1.7 | 0.00 | 0.00 | 0.00 | 91 | 1014.4 |
| 20260509080141 | 34 | 342 | 1.7 | 1.7 | 0.00 | 0.00 | 0.00 | 91 | 1014.4 |
| 20260509075638 | 34 | 323 | 1.7 | 1.7 | 0.00 | 0.00 | 0.00 | 91 | 1014.2 |
| 20260509074638 | 0 | 0.0 | 0.0 | 0.00 | 0.00 | 0.00 | 1014.4 | ||
| 20260509074238 | 34 | 326 | 1.7 | 1.7 | 0.00 | 0.00 | 0.00 | 92 | 1014.4 |
| 20260509073638 | 34 | 326 | 1.7 | 1.7 | 0.00 | 0.00 | 0.00 | 92 | 1014.4 |
| 20260509073138 | 34 | 330 | 1.7 | 1.7 | 0.00 | 0.00 | 0.00 | 91 | 1014.4 |
| 20260509072637 | 34 | 330 | 1.7 | 1.7 | 0.00 | 0.00 | 0.00 | 91 | 1014.4 |
| 20260509071637 | 34 | 327 | 0.9 | 0.9 | 0.00 | 0.00 | 0.00 | 92 | 1014.4 |
| 20260509070635 | 34 | 325 | 1.7 | 1.7 | 0.00 | 0.00 | 0.00 | 92 | 1014.2 |
| 20260509070135 | 34 | 325 | 1.7 | 1.7 | 0.00 | 0.00 | 0.00 | 91 | 1014.4 |
| 20260509065635 | 35 | 333 | 0.9 | 0.9 | 0.00 | 0.00 | 0.00 | 90 | 1014.4 |
| 20260509065137 | 35 | 0.0 | 0.0 | 0.00 | 0.00 | 0.00 | 90 | 1014.4 | |
| 20260509064635 | 35 | 334 | 1.7 | 1.7 | 0.00 | 0.00 | 0.00 | 91 | 1014.4 |
| 20260509064135 | 35 | 326 | 2.6 | 2.6 | 0.00 | 0.00 | 0.00 | 90 | 1014.4 |
| 20260509063634 | 35 | 326 | 2.6 | 2.6 | 0.00 | 0.00 | 0.00 | 90 | 1014.5 |
| 20260509063135 | 35 | 327 | 2.6 | 2.6 | 0.00 | 0.00 | 0.00 | 90 | 1014.5 |
| 20260509062633 | 35 | 330 | 2.6 | 2.6 | 0.00 | 0.00 | 0.00 | 90 | 1014.7 |
| 20260509061632 | 35 | 326 | 1.7 | 1.7 | 0.00 | 0.00 | 0.00 | 90 | 1014.7 |
| 20260509061133 | 35 | 333 | 1.7 | 1.7 | 0.00 | 0.00 | 0.00 | 90 | 1014.7 |
| 20260509060632 | 35 | 325 | 1.7 | 1.7 | 0.00 | 0.00 | 0.00 | 90 | 1014.7 |
| 20260509060131 | 35 | 326 | 1.7 | 1.7 | 0.00 | 0.00 | 0.00 | 90 | 1014.9 |
| 20260509055630 | 35 | 320 | 1.7 | 1.7 | 0.00 | 0.00 | 0.00 | 90 | 1014.9 |
| 20260509055130 | 36 | 325 | 1.7 | 1.7 | 0.00 | 0.00 | 0.00 | 89 | 1015.1 |
| 20260509054631 | 36 | 0.0 | 0.0 | 0.00 | 0.00 | 0.00 | 88 | 1015.1 | |
| 20260509054131 | 36 | 0.0 | 0.0 | 0.00 | 0.00 | 0.00 | 88 | 1015.1 | |
| 20260509053128 | 36 | 324 | 1.7 | 1.7 | 0.00 | 0.00 | 0.00 | 88 | 1015.1 |
| 20260509052628 | 36 | 333 | 1.7 | 1.7 | 0.00 | 0.00 | 0.00 | 88 | 1015.1 |
| 20260509052130 | 36 | 331 | 1.7 | 1.7 | 0.00 | 0.00 | 0.00 | 87 | 1014.9 |
| 20260509051628 | 36 | 335 | 1.7 | 1.7 | 0.00 | 0.00 | 0.00 | 88 | 1015.1 |
| 20260509051127 | 36 | 325 | 1.7 | 1.7 | 0.00 | 0.00 | 0.00 | 89 | 1014.7 |
| 20260509050628 | 36 | 325 | 1.7 | 1.7 | 0.00 | 0.00 | 0.00 | 88 | 1014.7 |
| 20260509050128 | 36 | 325 | 1.7 | 1.7 | 0.00 | 0.00 | 0.00 | 88 | 1014.7 |
| 20260509045627 | 37 | 326 | 1.7 | 1.7 | 0.00 | 0.00 | 0.00 | 88 | 1014.7 |
| 20260509045126 | 37 | 326 | 1.7 | 1.7 | 0.00 | 0.00 | 0.00 | 88 | 1014.7 |
| 20260509044625 | 37 | 325 | 1.7 | 1.7 | 0.00 | 0.00 | 0.00 | 87 | 1014.7 |
| 20260509044124 | 37 | 332 | 1.7 | 2.6 | 0.00 | 0.00 | 0.00 | 87 | 1014.7 |
| 20260509043627 | 37 | 331 | 0.9 | 0.9 | 0.00 | 0.00 | 0.00 | 87 | 1014.7 |
| 20260509043125 | 37 | 329 | 1.7 | 1.7 | 0.00 | 0.00 | 0.00 | 87 | 1014.7 |
| 20260509042125 | 38 | 330 | 0.9 | 1.7 | 0.00 | 0.00 | 0.00 | 86 | 1014.7 |
| 20260509041625 | 38 | 328 | 1.7 | 1.7 | 0.00 | 0.00 | 0.00 | 85 | 1014.4 |
| 20260509041225 | 38 | 335 | 1.7 | 1.7 | 0.00 | 0.00 | 0.00 | 84 | 1014.7 |
| 20260509040623 | 38 | 327 | 0.9 | 1.7 | 0.00 | 0.00 | 0.00 | 85 | 1014.7 |
| 20260509040124 | 38 | 331 | 0.9 | 0.9 | 0.00 | 0.00 | 0.00 | 85 | 1014.5 |
| 20260509035623 | 38 | 331 | 0.9 | 0.9 | 0.00 | 0.00 | 0.00 | 84 | 1014.7 |
| 20260509035124 | 39 | 330 | 0.9 | 0.9 | 0.00 | 0.00 | 0.00 | 83 | 1014.7 |
| 20260509034121 | 39 | 326 | 0.9 | 0.9 | 0.00 | 0.00 | 0.00 | 83 | 1014.7 |
| 20260509033623 | 39 | 326 | 0.9 | 0.9 | 0.00 | 0.00 | 0.00 | 83 | 1014.4 |
| 20260509033123 | 39 | 327 | 0.9 | 0.9 | 0.00 | 0.00 | 0.00 | 83 | 1014.4 |
| 20260509032621 | 39 | 328 | 0.9 | 0.9 | 0.00 | 0.00 | 0.00 | 83 | 1014.5 |
| 20260509031621 | 0 | 0.0 | 0.0 | 0.00 | 0.00 | 0.00 | 1014.4 | ||
| 20260509031222 | 0 | 0.0 | 0.0 | 0.00 | 0.00 | 0.00 | 1014.4 | ||
| 20260509030619 | 0 | 0.0 | 0.0 | 0.00 | 0.00 | 0.00 | 1014.4 | ||
| 20260509030118 | 0 | 0.0 | 0.0 | 0.00 | 0.00 | 0.00 | 1014.4 | ||
| 20260509024618 | 0 | 0.0 | 0.0 | 0.00 | 0.00 | 0.00 | 1014.4 | ||
| 20260509024119 | 0 | 0.0 | 0.0 | 0.00 | 0.00 | 0.00 | 1014.2 | ||
| 20260509023618 | 0 | 0.0 | 0.0 | 0.00 | 0.00 | 0.00 | 1014.2 | ||
| 20260509023117 | 0 | 0.0 | 0.0 | 0.00 | 0.00 | 0.00 | 1014.0 | ||
| 20260509022618 | 0 | 0.0 | 0.0 | 0.00 | 0.00 | 0.00 | 1014.0 | ||
| 20260509022116 | 0 | 0.0 | 0.0 | 0.00 | 0.00 | 0.00 | 1014.0 | ||
| 20260509021645 | 41 | 337 | 0.9 | 0.9 | 0.00 | 0.00 | 0.00 | 79 | 1014.0 |
| 20260509021146 | 41 | 337 | 0.9 | 0.9 | 0.00 | 0.00 | 0.00 | 79 | 1014.0 |
| 20260509020645 | 41 | 331 | 0.9 | 0.9 | 0.00 | 0.00 | 0.00 | 78 | 1014.0 |
| 20260509020145 | 41 | 331 | 0.9 | 0.9 | 0.00 | 0.00 | 0.00 | 78 | 1013.7 |
| 20260509015644 | 41 | 308 | 1.7 | 4.3 | 0.00 | 0.00 | 0.00 | 78 | 1014.0 |
| 20260509015145 | 41 | 331 | 0.9 | 0.9 | 0.00 | 0.00 | 0.00 | 78 | 1014.0 |
| 20260509014644 | 42 | 0.0 | 0.0 | 0.00 | 0.00 | 0.00 | 77 | 1014.0 | |
| 20260509014143 | 0 | 0.0 | 0.0 | 0.00 | 0.00 | 0.00 | 1013.7 | ||
| 20260509013644 | 44 | 318 | 1.7 | 1.7 | 0.00 | 0.00 | 0.00 | 70 | 1014.0 |
| 20260509013145 | 44 | 318 | 1.7 | 1.7 | 0.00 | 0.00 | 0.00 | 70 | 1013.7 |
| 20260509012142 | 44 | 327 | 0.9 | 0.9 | 0.00 | 0.00 | 0.00 | 72 | 1013.7 |
| 20260509011643 | 44 | 331 | 0.9 | 0.9 | 0.00 | 0.00 | 0.00 | 72 | 1013.3 |
| 20260509011243 | 0 | 0.0 | 0.0 | 0.00 | 0.00 | 0.00 | 1013.3 | ||
| 20260509010642 | 44 | 357 | 2.6 | 2.6 | 0.00 | 0.00 | 0.00 | 71 | 1013.3 |
| 20260509010241 | 44 | 357 | 2.6 | 2.6 | 0.00 | 0.00 | 0.00 | 71 | 1013.3 |
| 20260509005640 | 45 | 330 | 1.7 | 2.6 | 0.00 | 0.00 | 0.00 | 67 | 1013.3 |
| 20260509005143 | 45 | 320 | 0.9 | 2.6 | 0.00 | 0.00 | 0.00 | 68 | 1013.3 |
| 20260509004640 | 45 | 302 | 2.6 | 2.6 | 0.00 | 0.00 | 0.00 | 68 | 1013.0 |
| 20260509004140 | 45 | 302 | 2.6 | 2.6 | 0.00 | 0.00 | 0.00 | 68 | 1013.0 |
| 20260509003639 | 45 | 333 | 0.9 | 1.7 | 0.00 | 0.00 | 0.00 | 68 | 1012.6 |
| 20260509003138 | 45 | 293 | 2.6 | 6.1 | 0.00 | 0.00 | 0.00 | 68 | 1012.6 |
| 20260509002639 | 45 | 340 | 0.9 | 1.7 | 0.00 | 0.00 | 0.00 | 68 | 1013.0 |
| 20260509002139 | 45 | 328 | 1.7 | 1.7 | 0.00 | 0.00 | 0.00 | 68 | 1012.6 |
| 20260509001638 | 45 | 314 | 1.7 | 1.7 | 0.00 | 0.00 | 0.00 | 69 | 1012.6 |
| 20260509001137 | 45 | 338 | 1.7 | 2.6 | 0.00 | 0.00 | 0.00 | 69 | 1012.6 |
| 20260509000738 | 45 | 330 | 0.0 | 0.9 | 0.00 | 0.00 | 0.00 | 70 | 1012.6 |
| 20260509000137 | 46 | 330 | 0.0 | 0.9 | 0.00 | 0.00 | 0.00 | 68 | 1012.6 |
| 20260508235636 | 46 | 316 | 0.9 | 1.7 | 0.00 | 0.00 | 0.00 | 69 | 1012.6 |
| 20260508235135 | 46 | 349 | 0.9 | 1.7 | 0.00 | 0.00 | 0.00 | 67 | 1012.6 |
| 20260508234636 | 46 | 0.0 | 0.0 | 0.00 | 0.00 | 0.00 | 67 | 1012.6 | |
| 20260508234136 | 46 | 316 | 1.7 | 2.6 | 0.00 | 0.00 | 0.00 | 67 | 1012.3 |
| 20260508233636 | 46 | 340 | 0.9 | 1.7 | 0.00 | 0.00 | 0.00 | 66 | 1012.4 |